| time (UTC) | temp F | wind direction | speed MPH | gust MPH | rain 1hr in | rain 24hr in | rain mn in | humidity % | barometer mb |
| 20260506014837 | 68 | 114 | 1.0 | 0.0 | 0.00 | 0.00 | 0.00 | 69 | 1020.9 |
| 20260506013316 | 68 | 184 | 0.0 | 0.0 | 0.00 | 0.00 | 0.00 | 65 | 1021.0 |
| 20260506011826 | 67 | 183 | 0.0 | 0.0 | 0.00 | 0.00 | 0.00 | 64 | 1021.4 |
| 20260506010351 | 67 | 184 | 0.0 | 0.0 | 0.00 | 0.00 | 0.00 | 65 | 1021.5 |
| 20260506004816 | 65 | 184 | 0.0 | 0.0 | 0.00 | 0.00 | 0.00 | 65 | 1021.7 |
| 20260506003321 | 64 | 183 | 0.0 | 0.0 | 0.00 | 0.00 | 0.00 | 65 | 1021.9 |
| 20260506001848 | 63 | 183 | 0.0 | 0.0 | 0.00 | 0.00 | 0.00 | 66 | 1022.2 |
| 20260506000336 | 63 | 183 | 0.0 | 0.0 | 0.00 | 0.00 | 0.00 | 66 | 1022.4 |
| 20260505234817 | 62 | 184 | 0.0 | 0.0 | 0.00 | 0.00 | 0.00 | 65 | 1022.4 |
| 20260505233322 | 62 | 183 | 0.0 | 0.0 | 0.00 | 0.00 | 0.00 | 66 | 1022.2 |
| 20260505231828 | 62 | 184 | 0.0 | 0.0 | 0.00 | 0.00 | 0.00 | 66 | 1022.2 |
| 20260505230331 | 62 | 184 | 0.0 | 0.0 | 0.00 | 0.00 | 0.00 | 67 | 1022.1 |
| 20260505224839 | 62 | 183 | 0.0 | 0.0 | 0.00 | 0.00 | 0.00 | 67 | 1022.0 |
| 20260505223321 | 62 | 183 | 0.0 | 0.0 | 0.00 | 0.00 | 0.00 | 67 | 1022.2 |
| 20260505221828 | 61 | 184 | 0.0 | 0.0 | 0.00 | 0.00 | 0.00 | 68 | 1022.3 |
| 20260505220331 | 61 | 183 | 0.0 | 0.0 | 0.00 | 0.00 | 0.00 | 69 | 1022.3 |
| 20260505214838 | 60 | 183 | 0.0 | 0.0 | 0.00 | 0.00 | 0.00 | 70 | 1022.3 |
| 20260505213315 | 59 | 184 | 0.0 | 0.0 | 0.00 | 0.00 | 0.00 | 72 | 1022.1 |
| 20260505211824 | 59 | 184 | 0.0 | 0.0 | 0.00 | 0.00 | 0.00 | 71 | 1022.1 |
| 20260505210330 | 59 | 183 | 0.0 | 0.0 | 0.00 | 0.00 | 0.00 | 70 | 1022.1 |
| 20260505204814 | 58 | 184 | 0.0 | 0.0 | 0.00 | 0.00 | 0.00 | 70 | 1022.1 |
| 20260505203319 | 58 | 183 | 0.0 | 0.0 | 0.00 | 0.00 | 0.00 | 70 | 1022.1 |
| 20260505201826 | 58 | 183 | 0.0 | 0.0 | 0.00 | 0.00 | 0.00 | 70 | 1022.0 |
| 20260505200332 | 58 | 184 | 0.0 | 0.0 | 0.00 | 0.00 | 0.00 | 70 | 1022.1 |
| 20260505194813 | 58 | 184 | 0.0 | 0.0 | 0.00 | 0.00 | 0.00 | 70 | 1022.0 |
| 20260505193333 | 58 | 184 | 0.0 | 0.0 | 0.00 | 0.00 | 0.00 | 69 | 1022.0 |
| 20260505191821 | 58 | 184 | 0.0 | 0.0 | 0.00 | 0.00 | 0.00 | 68 | 1021.9 |
| 20260505190346 | 59 | 184 | 0.0 | 0.0 | 0.00 | 0.00 | 0.00 | 68 | 1021.7 |
| 20260505184856 | 59 | 183 | 0.0 | 0.0 | 0.00 | 0.00 | 0.00 | 67 | 1021.6 |
| 20260505183312 | 59 | 183 | 0.0 | 0.0 | 0.00 | 0.00 | 0.00 | 67 | 1021.4 |
| 20260505181820 | 59 | 183 | 0.0 | 0.0 | 0.00 | 0.00 | 0.00 | 66 | 1021.7 |
| 20260505180327 | 59 | 184 | 0.0 | 0.0 | 0.00 | 0.00 | 0.00 | 66 | 1021.6 |
| 20260505174835 | 59 | 184 | 0.0 | 0.0 | 0.00 | 0.00 | 0.00 | 65 | 1021.5 |
| 20260505173312 | 59 | 184 | 0.0 | 0.0 | 0.00 | 0.00 | 0.00 | 64 | 1021.7 |
| 20260505171819 | 59 | 184 | 0.0 | 0.0 | 0.00 | 0.00 | 0.00 | 63 | 1021.7 |
| 20260505170324 | 59 | 184 | 0.0 | 0.0 | 0.00 | 0.00 | 0.00 | 63 | 1021.7 |
| 20260505164815 | 59 | 184 | 0.0 | 0.0 | 0.00 | 0.00 | 0.00 | 63 | 1021.7 |
| 20260505163320 | 59 | 184 | 0.0 | 0.0 | 0.00 | 0.00 | 0.00 | 63 | 1021.8 |
| 20260505161849 | 59 | 184 | 0.0 | 0.0 | 0.00 | 0.00 | 0.00 | 63 | 1021.9 |
| 20260505160333 | 60 | 184 | 0.0 | 0.0 | 0.00 | 0.00 | 0.00 | 63 | 1022.1 |
| 20260505153318 | 60 | 184 | 0.0 | 0.0 | 0.00 | 0.00 | 0.00 | 65 | 1021.8 |
| 20260505151846 | 60 | 183 | 0.0 | 0.0 | 0.00 | 0.00 | 0.00 | 66 | 1022.1 |
| 20260505150331 | 60 | 184 | 0.0 | 0.0 | 0.00 | 0.00 | 0.00 | 67 | 1022.2 |
| 20260505140327 | 61 | 184 | 0.0 | 0.0 | 0.00 | 0.00 | 0.00 | 70 | 1022.3 |
| 20260505124835 | 61 | 105 | 0.0 | 0.0 | 0.00 | 0.00 | 0.00 | 65 | 1022.0 |
| 20260505123322 | 61 | 107 | 1.0 | 0.0 | 0.00 | 0.00 | 0.00 | 64 | 1022.1 |
| 20260505121829 | 61 | 105 | 2.0 | 0.0 | 0.00 | 0.00 | 0.00 | 64 | 1021.9 |
| 20260505120334 | 62 | 107 | 1.0 | 0.0 | 0.00 | 0.00 | 0.00 | 64 | 1022.0 |
| 20260505114815 | 62 | 107 | 1.0 | 0.0 | 0.00 | 0.00 | 0.00 | 64 | 1021.9 |
| 20260505113320 | 62 | 106 | 2.0 | 0.0 | 0.00 | 0.00 | 0.00 | 64 | 1021.8 |
| 20260505111827 | 62 | 114 | 3.0 | 0.0 | 0.00 | 0.00 | 0.00 | 63 | 1021.7 |
| 20260505110325 | 62 | 118 | 3.0 | 0.0 | 0.00 | 0.00 | 0.00 | 61 | 1021.5 |
| 20260505101825 | 62 | 92 | 1.0 | 0.0 | 0.00 | 0.00 | 0.00 | 56 | 1021.1 |
| 20260505100352 | 62 | 114 | 1.0 | 0.0 | 0.00 | 0.00 | 0.00 | 55 | 1021.0 |
| 20260505094837 | 63 | 117 | 0.0 | 0.0 | 0.00 | 0.00 | 0.00 | 54 | 1020.7 |
| 20260505093321 | 63 | 121 | 1.0 | 0.0 | 0.00 | 0.00 | 0.00 | 51 | 1020.7 |
| 20260505091826 | 63 | 119 | 1.0 | 0.0 | 0.00 | 0.00 | 0.00 | 47 | 1020.6 |
| 20260505090312 | 64 | 98 | 1.0 | 0.0 | 0.00 | 0.00 | 0.00 | 51 | 1020.3 |
| 20260505084820 | 65 | 108 | 2.0 | 0.0 | 0.00 | 0.00 | 0.00 | 49 | 1020.2 |
| 20260505083326 | 66 | 102 | 1.0 | 0.0 | 0.00 | 0.00 | 0.00 | 52 | 1020.0 |
| 20260505081835 | 66 | 263 | 1.0 | 0.0 | 0.00 | 0.00 | 0.00 | 50 | 1019.8 |
| 20260505080314 | 67 | 140 | 2.0 | 0.0 | 0.00 | 0.00 | 0.00 | 51 | 1019.8 |
| 20260505074826 | 68 | 107 | 2.0 | 0.0 | 0.00 | 0.00 | 0.00 | 49 | 1019.7 |
| 20260505073324 | 68 | 109 | 1.0 | 0.0 | 0.00 | 0.00 | 0.00 | 47 | 1019.5 |
| 20260505071831 | 69 | 175 | 2.0 | 0.0 | 0.00 | 0.00 | 0.00 | 43 | 1019.5 |
| 20260505070336 | 69 | 120 | 1.0 | 0.0 | 0.00 | 0.00 | 0.00 | 41 | 1019.3 |
| 20260505064822 | 70 | 128 | 1.0 | 0.0 | 0.00 | 0.00 | 0.00 | 43 | 1019.2 |
| 20260505063321 | 71 | 137 | 2.0 | 0.0 | 0.00 | 0.00 | 0.00 | 41 | 1019.1 |
| 20260505061836 | 72 | 221 | 1.0 | 0.0 | 0.00 | 0.00 | 0.00 | 41 | 1019.0 |
| 20260505060315 | 72 | 281 | 1.0 | 0.0 | 0.00 | 0.00 | 0.00 | 39 | 1018.6 |
| 20260505054825 | 72 | 102 | 1.0 | 0.0 | 0.00 | 0.00 | 0.00 | 35 | 1018.5 |
| 20260505053331 | 72 | 109 | 3.0 | 0.0 | 0.00 | 0.00 | 0.00 | 30 | 1018.5 |
| 20260505051840 | 72 | 113 | 5.0 | 0.0 | 0.00 | 0.00 | 0.00 | 31 | 1018.5 |
| 20260505050317 | 73 | 110 | 4.0 | 0.0 | 0.00 | 0.00 | 0.00 | 28 | 1018.6 |
| 20260505040326 | 74 | 106 | 0.0 | 0.0 | 0.00 | 0.00 | 0.00 | 22 | 1018.9 |
| 20260505034855 | 73 | 94 | 0.0 | 0.0 | 0.00 | 0.00 | 0.00 | 26 | 1018.7 |
| 20260505033318 | 73 | 94 | 0.0 | 0.0 | 0.00 | 0.00 | 0.00 | 27 | 1018.8 |
| 20260505031820 | 73 | 30 | 0.0 | 0.0 | 0.00 | 0.00 | 0.00 | 26 | 1018.7 |
| 20260505030324 | 72 | 30 | 0.0 | 0.0 | 0.00 | 0.00 | 0.00 | 26 | 1018.7 |
| 20260505024833 | 72 | 29 | 0.0 | 0.0 | 0.00 | 0.00 | 0.00 | 30 | 1018.9 |
| 20260505023312 | 71 | 37 | 0.0 | 0.0 | 0.00 | 0.00 | 0.00 | 29 | 1018.9 |
| 20260505021821 | 71 | 38 | 0.0 | 0.0 | 0.00 | 0.00 | 0.00 | 29 | 1018.8 |
| 20260505020327 | 70 | 103 | 0.0 | 0.0 | 0.00 | 0.00 | 0.00 | 26 | 1018.9 |